Cloud_Cover
100 100 99 98 58 18 22 16 20 20 4 0 0 0 0 0 2 0 0 0 0 0 0 0 0 0 0 4 0 8 100 99 98 80 93 62 11 0 0 4 0 4 82 20 0
100 100 100 100 80 27 19 15 26 6 5 0 0 0 0 7 0 0 0 0 0 0 0 0 0 0 4 5 4 93 5 10 76 98 78 40 20 5 65 21 1 0 0 0 0
100 100 100 100 100 44 23 21 9 6 0 0 0 0 0 35 0 0 0 0 0 0 0 0 0 0 5 27 10 10 5 5 5 8 9 53 97 44 100 9 4 0 0 0 0
100 100 100 100 100 97 23 24 11 1 2 0 0 0 6 0 0 0 0 0 0 0 0 0 4 6 78 99 5 94 0 4 3 2 5 65 5 87 1 0 0 0 0 0 0
100 100 100 100 100 97 23 21 4 0 0 0 0 0 1 0 0 0 0 0 0 0 0 0 5 9 100 11 2 5 0 3 0 5 5 0 1 0 81 0 0 0 0 0 0
100 100 100 100 100 67 32 0 0 0 0 0 0 35 0 0 0 0 0 0 0 0 0 0 4 10 15 4 34 0 0 4 5 5 5 5 18 1 37 0 0 0 0 0 0
100 100 100 100 100 26 21 0 0 0 0 0 0 0 0 0 0 0 0 0 0 0 1 0 0 4 5 2 0 0 5 5 3 2 5 2 97 28 2 0 0 0 0 0 0
100 100 100 100 100 18 0 0 0 0 0 0 0 0 0 0 0 0 0 0 0 0 0 0 0 2 5 0 0 5 12 97 3 0 2 1 99 86 1 0 0 0 0 0 0
100 100 100 100 98 8 0 0 0 0 0 0 1 0 0 0 0 0 0 0 0 0 0 0 0 4 1 5 50 5 97 1 5 0 0 1 40 66 1 0 0 0 0 0 0
100 100 100 98 62 0 0 4 0 0 16 0 0 0 0 0 0 0 0 0 0 0 0 0 3 5 5 56 100 33 93 4 1 3 0 0 0 4 5 5 0 0 0 0 0
100 100 100 100 16 0 47 0 0 0 0 0 0 0 0 0 0 0 0 0 0 0 2 2 5 59 99 0 0 0 5 4 0 0 0 0 0 0 0 1 2 0 0 0 0
100 100 100 86 0 0 10 0 0 0 0 0 0 0 0 0 0 0 0 0 0 0 4 4 5 15 0 0 0 0 0 5 0 0 0 0 0 0 0 0 0 0 0 0 0
100 100 100 57 0 33 0 0 0 0 0 0 0 0 0 0 0 0 0 0 0 0 1 3 40 0 0 0 0 5 4 0 0 0 0 1 34 0 0 0 0 0 0 0 0
100 100 100 2 50 0 0 0 0 0 0 0 0 0 0 0 0 0 0 0 0 0 1 0 12 0 0 0 2 7 0 0 0 0 85 4 100 40 0 3 2 1 1 3 0
100 100 96 82 0 0 0 0 0 0 0 0 0 0 0 0 0 0 0 0 0 0 0 0 0 0 0 1 2 0 0 0 0 0 6 8 97 100 4 82 81 46 0 4 79
100 100 76 16 0 0 0 0 0 0 0 0 0 0 0 0 0 0 0 0 0 0 0 0 0 0 0 0 0 0 0 0 1 0 65 14 20 100 100 1 4 2 0 0 3
100 99 54 72 0 0 0 0 0 3 0 0 0 0 0 0 0 0 0 0 0 0 0 0 0 0 0 0 0 0 0 95 87 61 100 62 1 46 97 1 0 0 1 0 5
99 97 77 5 0 0 0 0 1 2 0 0 0 0 0 0 0 0 0 0 0 0 0 0 0 0 0 0 1 46 6 100 46 100 74 53 2 96 29 0 3 4 0 0 0
100 77 90 9 5 4 0 0 32 0 0 0 0 0 0 0 0 0 0 0 0 0 0 0 33 0 0 0 0 92 1 71 34 57 9 98 72 15 63 37 24 10 26 0 0
76 5 5 9 5 5 1 1 3 0 0 0 0 0 0 0 0 0 0 0 0 0 0 2 21 2 0 0 0 2 45 50 89 87 100 100 36 100 55 3 29 74 37 25 0
5 9 74 85 15 5 5 1 0 0 0 0 3 0 0 0 0 0 0 0 0 0 0 0 0 100 4 1 84 16 1 18 84 89 98 75 100 22 5 0 0 10 36 0 84
99 100 56 6 5 5 5 0 0 0 0 0 0 0 0 0 0 0 4 0 0 0 0 0 5 61 71 15 3 7 65 100 100 99 97 100 90 3 0 0 0 0 0 1 16
99 20 5 3 5 5 5 0 0 0 0 0 0 0 0 0 0 0 4 0 0 0 2 5 0 7 93 56 19 0 0 10 10 100 75 96 100 35 4 0 0 2 2 33 1
98 22 5 7 1 32 45 5 0 0 0 0 1 0 0 5 3 5 5 0 0 0 0 0 2 16 96 68 91 98 80 5 5 10 93 89 52 100 86 5 2 0 0 0 62
99 25 6 100 93 4 5 5 0 0 0 0 0 0 5 68 50 79 100 0 0 1 1 2 58 88 79 92 96 85 100 38 5 5 4 4 2 13 4 0 0 0 0 0 5
82 9 5 100 100 90 5 5 0 3 0 0 0 3 5 94 100 100 94 94 96 2 0 0 4 4 5 5 5 5 5 5 5 2 5 5 3 4 0 0 0 0 0 0 0
4 5 5 5 100 100 82 3 0 5 0 2 4 4 4 3 0 0 0 1 5 0 2 5 1 5 8 5 5 16 8 5 3 5 3 1 3 0 0 0 0 0 0 0 0